DW7898 Weather Reports


time (UTC)temp
C
wind
direction
speed
KPH
gust
KPH
rain 1hr
cm
rain 24hr
cm
rain mn
cm
humidity
%
barometer
mb
20260904071341 24 21 0.0 0.0 0.00 0.00 0.00 79 1021.7
20260904070341 23 20 0.0 1.6 0.00 0.00 0.00 79 1021.8
20260904065400 23 21 1.6 3.2 0.00 0.00 0.00 79 1021.8
20260904064357 23 21 0.0 3.2 0.00 0.00 0.00 81 1021.7
20260904063357 23 21 0.0 3.2 0.00 0.00 0.00 82 1021.6
20260904062349 23 21 1.6 3.2 0.00 0.00 0.00 82 1021.6
20260904061350 22 21 0.0 3.2 0.00 0.00 0.00 82 1021.6
20260904060348 22 21 1.6 3.2 0.00 0.00 0.00 81 1021.5
20260904055400 22 21 1.6 3.2 0.00 0.00 0.00 82 1021.6
20260904054359 22 21 0.0 1.6 0.00 0.00 0.00 82 1021.4
20260904053340 22 21 0.0 1.6 0.00 0.00 0.00 81 1021.4
20260904052357 23 21 0.0 0.0 0.00 0.00 0.00 82 1021.2
20260904051400 23 21 0.0 3.2 0.00 0.00 0.00 81 1021.3
20260904050358 23 21 1.6 3.2 0.00 0.00 0.00 81 1021.3
20260904045350 23 21 1.6 3.2 0.00 0.00 0.00 80 1021.4
20260904044344 23 21 1.6 1.6 0.00 0.00 0.00 80 1021.4
20260904043344 22 21 0.0 0.0 0.00 0.00 0.00 79 1021.4
20260904042359 23 21 0.0 0.0 0.00 0.00 0.00 80 1021.5
20260904041359 23 21 0.0 0.0 0.00 0.00 0.00 80 1021.5
20260904040357 23 21 0.0 3.2 0.00 0.00 0.00 80 1021.6
20260904035402 23 21 0.0 0.0 0.00 0.00 0.00 80 1021.7
20260904034342 23 21 0.0 3.2 0.00 0.00 0.00 81 1021.7
20260904033346 23 21 1.6 4.8 0.00 0.00 0.00 81 1021.7
20260904032338 23 21 3.2 6.4 0.00 0.00 0.00 81 1021.8
20260904031356 23 252 0.0 4.8 0.00 0.00 0.00 82 1022.0
20260904030354 23 251 0.0 3.2 0.00 0.00 0.00 83 1022.0
20260904025355 24 251 0.0 1.6 0.00 0.00 0.00 83 1022.2
20260904024359 24 251 0.0 1.6 0.00 0.00 0.00 83 1022.2
20260904023338 24 251 1.6 6.4 0.00 0.00 0.00 83 1022.3
20260904022337 24 252 1.6 4.8 0.00 0.00 0.00 82 1022.3
20260904021340 24 252 0.0 3.2 0.00 0.00 0.00 81 1022.3
20260904020342 24 252 1.6 3.2 0.00 0.00 0.00 81 1022.5
20260904015400 24 252 0.0 4.8 0.00 0.00 0.00 80 1022.6
20260904014359 25 252 1.6 4.8 0.00 0.00 0.00 79 1022.5
20260904013341 24 252 1.6 3.2 0.00 0.00 0.00 79 1022.6
20260904012356 25 252 0.0 1.6 0.00 0.00 0.00 80 1022.6
20260904011358 25 252 1.6 3.2 0.00 0.00 0.00 80 1022.7
20260904010357 25 252 0.0 3.2 0.00 0.00 0.00 80 1022.8
20260904005349 25 252 1.6 6.4 0.00 0.00 0.00 79 1023.0
20260904004351 25 253 1.6 4.8 0.00 0.00 0.00 78 1022.9
20260904003354 25 253 0.0 1.6 0.00 0.00 0.00 78 1023.1
20260904002355 25 253 0.0 1.6 0.00 0.00 0.00 77 1023.2
20260904001357 25 253 0.0 1.6 0.00 0.00 0.00 77 1023.2
20260904000358 25 253 0.0 1.6 0.00 0.00 0.00 76 1023.3
20260903235355 25 253 0.0 1.6 0.00 0.00 0.00 75 1023.4
20260903234351 25 253 1.6 3.2 0.00 0.00 0.00 75 1023.4
20260903233352 25 253 0.0 3.2 0.00 0.00 0.00 75 1023.5
20260903232348 25 253 1.6 4.8 0.00 0.00 0.00 75 1023.6
20260903231343 25 253 1.6 3.2 0.00 0.00 0.00 74 1023.7
20260903230344 25 253 1.6 4.8 0.00 0.00 0.00 74 1023.6
20260903225401 26 253 3.2 4.8 0.00 0.00 0.00 73 1023.7
20260903224339 26 253 3.2 4.8 0.00 0.00 0.00 73 1023.5
20260903223339 26 253 3.2 6.4 0.00 0.00 0.00 74 1023.6
20260903222339 26 253 1.6 4.8 0.00 0.00 0.00 73 1023.6
20260903221344 26 253 3.2 6.4 0.00 0.00 0.00 73 1023.6
20260903220347 26 253 3.2 6.4 0.00 0.00 0.00 72 1023.6
20260903215340 26 253 3.2 6.4 0.00 0.00 0.00 72 1023.6
20260903214338 26 253 4.8 6.4 0.00 0.00 0.00 72 1023.6
20260903213343 26 253 4.8 6.4 0.00 0.00 0.00 71 1023.5
20260903212341 26 253 1.6 8.0 0.00 0.00 0.00 71 1023.7
20260903211342 26 253 3.2 6.4 0.00 0.00 0.00 71 1023.5
20260903210341 26 254 3.2 6.4 0.00 0.00 0.00 70 1023.6
20260903205400 26 254 4.8 8.0 0.00 0.00 0.00 70 1023.7
20260903204341 26 254 3.2 6.4 0.00 0.00 0.00 70 1023.7
20260903203343 26 255 3.2 8.0 0.00 0.00 0.00 70 1023.7
20260903202357 27 252 3.2 8.0 0.00 0.00 0.00 70 1023.7
20260903201354 27 254 1.6 8.0 0.00 0.00 0.00 70 1023.7
20260903200339 27 251 4.8 8.0 0.00 0.00 0.00 70 1023.8
20260903195339 27 249 3.2 8.0 0.00 0.00 0.00 70 1023.7
20260903194358 27 252 4.8 9.7 0.00 0.00 0.00 70 1023.6
20260903193356 27 223 4.8 11.3 0.00 0.00 0.00 70 1023.4
20260903192350 27 244 4.8 11.3 0.00 0.00 0.00 69 1023.4
20260903191353 27 208 4.8 11.3 0.00 0.00 0.00 68 1023.3
20260903190347 27 238 4.8 9.7 0.00 0.00 0.00 67 1023.1
20260903185355 27 223 1.6 8.0 0.00 0.00 0.00 67 1023.3
20260903184345 27 137 1.6 12.9 0.00 0.00 0.00 66 1023.0
20260903183342 28 214 4.8 11.3 0.00 0.00 0.00 65 1023.0
20260903182347 28 221 6.4 16.1 0.00 0.00 0.00 64 1022.9
20260903181359 28 209 8.0 16.1 0.00 0.00 0.00 62 1022.8
20260903180348 28 221 8.0 16.1 0.00 0.00 0.00 62 1022.8
20260903175355 28 220 6.4 14.5 0.00 0.00 0.00 60 1022.8
20260903174351 29 180 6.4 14.5 0.00 0.00 0.00 59 1022.7
20260903173344 30 206 9.7 14.5 0.00 0.00 0.00 56 1022.7
20260903172357 30 53 1.6 14.5 0.00 0.00 0.00 55 1022.5
20260903171355 30 230 3.2 16.1 0.00 0.00 0.00 55 1022.6
20260903170346 30 240 6.4 11.3 0.00 0.00 0.00 54 1022.5
20260903165350 30 143 6.4 19.3 0.00 0.00 0.00 54 1022.6
20260903164351 30 246 6.4 16.1 0.00 0.00 0.00 54 1022.6
20260903163347 30 208 8.0 22.5 0.00 0.00 0.00 54 1022.4
20260903162340 30 208 4.8 22.5 0.00 0.00 0.00 54 1022.4
20260903161344 30 260 6.4 22.5 0.00 0.00 0.00 54 1022.5
20260903160340 31 220 11.3 22.5 0.00 0.00 0.00 53 1022.5
20260903155354 31 195 9.7 22.5 0.00 0.00 0.00 53 1022.5
20260903154350 31 187 9.7 27.4 0.00 0.00 0.00 51 1022.6
20260903153344 31 216 14.5 24.1 0.00 0.00 0.00 50 1022.8
20260903152349 31 220 11.3 17.7 0.00 0.00 0.00 48 1022.7
20260903151347 30 189 6.4 16.1 0.00 0.00 0.00 53 1022.7
20260903150346 30 159 6.4 20.9 0.00 0.00 0.00 56 1022.7
20260903145355 30 137 17.7 27.4 0.00 0.00 0.00 56 1022.7
20260903144349 30 136 6.4 25.7 0.00 0.00 0.00 56 1022.8
20260903143347 30 144 6.4 22.5 0.00 0.00 0.00 58 1022.8
20260903142359 31 131 9.7 22.5 0.00 0.00 0.00 56 1022.9
20260903141400 31 210 11.3 20.9 0.00 0.00 0.00 52 1022.9
20260903140356 31 172 3.2 16.1 0.00 0.00 0.00 52 1023.0
20260903135352 31 201 6.4 25.7 0.00 0.00 0.00 52 1022.9
20260903134351 31 208 6.4 22.5 0.00 0.00 0.00 51 1023.2
20260903133343 31 249 3.2 22.5 0.00 0.00 0.00 52 1023.3
20260903132355 30 101 4.8 22.5 0.00 0.00 0.00 51 1023.4
20260903131355 30 216 14.5 25.7 0.00 0.00 0.00 50 1023.5
20260903130353 31 209 12.9 20.9 0.00 0.00 0.00 47 1023.4
20260903125349 31 221 11.3 17.7 0.00 0.00 0.00 46 1023.5
20260903124400 31 193 9.7 17.7 0.00 0.00 0.00 42 1023.5
20260903123356 31 235 11.3 22.5 0.00 0.00 0.00 43 1023.5
20260903122353 31 118 6.4 20.9 0.00 0.00 0.00 38 1023.6
20260903121354 31 118 14.5 25.7 0.00 0.00 0.00 38 1023.5
20260903120348 31 101 6.4 16.1 0.00 0.00 0.00 37 1023.6
20260903115402 31 144 4.8 16.1 0.00 0.00 0.00 37 1023.5
20260903114358 31 178 3.2 16.1 0.00 0.00 0.00 38 1023.5
20260903113355 31 213 8.0 19.3 0.00 0.00 0.00 37 1023.7
20260903112350 31 204 9.7 19.3 0.00 0.00 0.00 37 1023.7
20260903111348 31 122 6.4 17.7 0.00 0.00 0.00 38 1023.7
20260903110402 31 122 8.0 16.1 0.00 0.00 0.00 38 1023.8
20260903105354 30 218 6.4 17.7 0.00 0.00 0.00 37 1023.8
20260903104344 30 127 9.7 16.1 0.00 0.00 0.00 40 1023.9
20260903103353 30 180 4.8 17.7 0.00 0.00 0.00 43 1024.1
20260903102343 30 151 6.4 12.9 0.00 0.00 0.00 43 1024.2
20260903101341 30 118 6.4 16.1 0.00 0.00 0.00 45 1024.3
20260903100401 30 110 9.7 17.7 0.00 0.00 0.00 46 1024.2
20260903095352 30 180 3.2 14.5 0.00 0.00 0.00 46 1024.3
20260903094346 30 168 3.2 9.7 0.00 0.00 0.00 48 1024.4
20260903093346 29 247 0.0 8.0 0.00 0.00 0.00 48 1024.4
20260903092359 29 260 4.8 8.0 0.00 0.00 0.00 47 1024.4
20260903091351 28 290 3.2 6.4 0.00 0.00 0.00 48 1024.3
20260903090353 28 292 0.0 6.4 0.00 0.00 0.00 49 1024.3
20260903085349 27 32 0.0 3.2 0.00 0.00 0.00 51 1024.1
20260903084345 27 37 0.0 4.8 0.00 0.00 0.00 52 1024.2
20260903083344 26 38 1.6 4.8 0.00 0.00 0.00 53 1024.1
20260903082357 26 38 1.6 4.8 0.00 0.00 0.00 55 1023.9
20260903081359 26 38 0.0 3.2 0.00 0.00 0.00 56 1024.2
20260903080356 25 38 1.6 3.2 0.00 0.00 0.00 56 1024.0
20260903075352 25 38 0.0 3.2 0.00 0.00 0.00 59 1024.0
20260903074351 24 38 0.0 3.2 0.00 0.00 0.00 60 1023.9
20260903073352 24 38 1.6 3.2 0.00 0.00 0.00 61 1024.0
20260903072345 23 38 1.6 3.2 0.00 0.00 0.00 64 1024.1